Regional Weather Roundup
Issued by NWS

Home | Current Version | Previous Version | Graphics & Text | Print | Product List | Glossary On
Versions: 1 2 3 4 5 6 7 8 9 10 11 12 13 14 15 16 17 18 19 20 21 22 23 24 25 26 27
000
ASUS43 KDMX 201707
RWRIA

WEATHER ROUNDUP FOR IOWA
NATIONAL WEATHER SERVICE DES MOINES IA
1200 PM CDT SUN APR 20 2014

NOTE: "FAIR" INDICATES FEW OR NO CLOUDS BELOW 12,000 FEET WITH NO
SIGNIFICANT WEATHER AND/OR OBSTRUCTIONS TO VISIBILITY.

* - THESE STATIONS ARE NOT NWS STATIONS...THUS NOT UNDER NWS
QUALITY CONTROL.  THEY ALSO DO NOT REPORT WEATHER SUCH
AS PRECIPITATION OR FOG.

IAZ001>003-012>014-020>022-031>034-043>046-201800-
   NORTHWEST IOWA

CITY           SKY/WX    TMP DP  RH WIND       PRES   REMARKS
CARROLL *      SUNNY     75  50  41 SW9G16    30.00F
CHEROKEE *     PTSUNNY   70  55  60 CALM      29.99S
DENISON *      SUNNY     73  50  43 S10       29.98F
LE MARS *      SUNNY     72  52  49 NE7       29.97F
ORANGE CITY *  SUNNY     72  48  43 E5        29.98F
SHELDON *      SUNNY     70  46  43 SE10      29.98F
SIOUX CITY     MOSUNNY   71  54  54 SE7       29.98R
SPENCER        SUNNY     70  48  45 CALM      30.00F
STORM LAKE *   SUNNY     68  54  60 SE6       30.01S
$$

IAZ055>058-069>071-079>083-090>094-201800-
   SOUTHWEST IOWA

CITY           SKY/WX    TMP DP  RH WIND       PRES   REMARKS
ATLANTIC *     SUNNY     75  52  43 SW16      30.00F
AUDUBON *      SUNNY     77  46  33 SW12      30.01F
CLARINDA *     SUNNY     77  54  44 S16G23    30.03S
COUNCIL BLFS * SUNNY     75  54  46 SW13      29.99F
CRESTON *      SUNNY     75  54  46 SW17G29   30.04S
HARLAN  *      SUNNY     75  52  43 SW10G16   30.03F
LAMONI         MOSUNNY   76  51  41 S22       30.06F
RED OAK *      SUNNY     75  54  46 SW12G18   30.01F
SHENANDOAH *   SUNNY     79  52  38 S10G24    30.01F
$$

IAZ047>049-059>061-072>074-084-201800-
   CENTRAL IOWA

CITY           SKY/WX    TMP DP  RH WIND       PRES   REMARKS
AMES           MOSUNNY   75  53  46 S16       30.02F
ANKENY *       SUNNY     79  52  38 S17G24    30.02F
CHARITON *     CLOUDY    75  52  43 SW15      30.06F
DES MOINES     PTSUNNY   80  52  37 SW16G25   30.02F HX  80
GRINNELL*      MOSUNNY   73  48  40 S13G21    30.06F
KNOXVILLE *    PTSUNNY   75  50  41 SW14G24   30.05F
MARSHALLTOWN   MOSUNNY   74  54  49 S12G18    30.04F
NEWTON *       MOSUNNY   77  50  38 S18       30.05F
PELLA *        MOSUNNY   77  50  38 S14G21    30.06F
PERRY *          N/A     79  46  31 SW14G20   30.01F
$$

IAZ004>006-015-016-023>025-035-036-201800-
   NORTH CENTRAL IOWA

CITY           SKY/WX    TMP DP  RH WIND       PRES   REMARKS
ALGONA *       SUNNY     64  57  77 S12       30.02F
CLARION *      SUNNY     64  57  77 SE6       30.03F
ESTHERVILLE    SUNNY     66  53  63 SW5       30.00F
FORT DODGE *   MOSUNNY   70  55  60 SE6       30.02F
MASON CITY     TSTM      53  51  93 SE8       30.06R
FOREST CITY *  PTSUNNY   59  55  88 SE7       30.04S
IOWA FALLS *     N/A     70  54  56 SE14      30.03F
$$

IAZ007>011-017>019-026>030-037>042-050>054-066-201800-
   NORTHEAST IOWA

CITY           SKY/WX    TMP DP  RH WIND       PRES   REMARKS
CEDAR RAPIDS   MOSUNNY   75  46  35 S15       30.07F
CHARLES CITY * PTSUNNY   52  50  93 SE15      30.03F FOG
CLINTON *      SUNNY     75  45  33 SW16      30.14F
DECORAH *      RAIN      54  52  94 S6G12     30.10S
DUBUQUE        MOSUNNY   73  46  38 SW13      30.11S
MONTICELLO *   SUNNY     75  48  38 SW15      30.09F
OELWEIN *      CLOUDY   N/A N/A N/A S6        30.10F
WATERLOO       CLOUDY    59  51  75 MISG      30.07F
$$

IAZ064-065-067-068-078-201800-
   EAST CENTRAL IOWA

CITY           SKY/WX    TMP DP  RH WIND       PRES   REMARKS
DAVENPORT      SUNNY     78  44  29 S15       30.12F
IOWA CITY      MOSUNNY   76  48  37 SW15G22   30.10F
MT. PLEASANT * MOSUNNY   77  41  27 S8G16     30.11F
MUSCATINE *    SUNNY     79  46  31 SW14G23   30.10F
QUAD CITIES    SUNNY     78  43  28 SW14      30.10F
$$

IAZ062-063-075>077-085>089-095>099-201800-
   SOUTHEAST IOWA

CITY           SKY/WX    TMP DP  RH WIND       PRES   REMARKS
BURLINGTON     MOSUNNY   75  49  39 SW14      30.12F
FAIRFIELD *    SUNNY     75  46  35 S13G22    30.10F
FORT MADISON * SUNNY     73  46  38 S10       30.13F
KEOKUK *       SUNNY     75  48  38 VRB6G13   30.11F
OSKALOOSA *      N/A     75  48  38 SW15      30.08F
CENTERVILLE *  SUNNY     75  50  41 SW14G24   30.10F
OTTUMWA        MOSUNNY   77  48  35 S14G23    30.08F
WASHINGTON *   SUNNY     79  48  34 SW13G21   30.10S
$$

ABBREVIATIONS USED IN REMARKS
   TC - TEMPERATURES IN CELSIUS
  WCI - WIND CHILL INDEX
   HX - HEAT INDEX
  VSB - VISIBILITY
$$




USA.gov is the U.S. government's official web portal to all federal, state and local government web resources and services.